iso_date,epoch_date,Year,Hour,Min,DOY,POS_DOY,Lat,Lon,BP,Ts,Ta,has_bp,has_ts,has_ta,BuoyID,Buoy_Type,Buoy_Owner,Logistics,Hemisphere
2020-10-30T19:00:02Z,1604084403,2020,19,0,304.7917,304.7917,63.377,-15.019,981.6,9.61,-999.0,yes,yes,no,300234066436240,BD2GI,AOML,LAGARFOSS,North
2020-10-30T19:59:57Z,1604087997,2020,20,0,304.8333,304.8333,63.386,-15.004,981.6,9.62,-999.0,yes,yes,no,300234066436240,BD2GI,AOML,LAGARFOSS,North
2020-10-30T21:00:00Z,1604091600,2020,21,0,304.875,304.875,63.392,-14.977,982.4,9.61,-999.0,yes,yes,no,300234066436240,BD2GI,AOML,LAGARFOSS,North
2020-10-30T22:00:02Z,1604095203,2020,22,0,304.9167,304.9167,63.397,-14.945,983.9,9.61,-999.0,yes,yes,no,300234066436240,BD2GI,AOML,LAGARFOSS,North
2020-10-30T22:59:57Z,1604098797,2020,23,0,304.9583,304.9583,63.397,-14.924,985.2,9.62,-999.0,yes,yes,no,300234066436240,BD2GI,AOML,LAGARFOSS,North
2020-10-31T00:00:00Z,1604102400,2020,0,0,305.0,305.0,63.393,-14.912,985.9,9.61,-999.0,yes,yes,no,300234066436240,BD2GI,AOML,LAGARFOSS,North
2020-10-31T01:00:02Z,1604106003,2020,1,0,305.0417,305.0417,63.388,-14.909,986.5,9.6,-999.0,yes,yes,no,300234066436240,BD2GI,AOML,LAGARFOSS,North
2020-10-31T01:59:57Z,1604109597,2020,2,0,305.0833,305.0833,63.383,-14.915,986.8,9.6,-999.0,yes,yes,no,300234066436240,BD2GI,AOML,LAGARFOSS,North
2020-10-31T03:00:00Z,1604113200,2020,3,0,305.125,305.125,63.377,-14.932,986.9,9.59,-999.0,yes,yes,no,300234066436240,BD2GI,AOML,LAGARFOSS,North
2020-10-31T04:00:02Z,1604116803,2020,4,0,305.1667,305.1667,63.374,-14.962,987.2,9.59,-999.0,yes,yes,no,300234066436240,BD2GI,AOML,LAGARFOSS,North
2020-10-31T04:59:57Z,1604120397,2020,5,0,305.2083,305.2083,63.377,-14.986,987.8,9.58,-999.0,yes,yes,no,300234066436240,BD2GI,AOML,LAGARFOSS,North
2020-10-31T06:00:00Z,1604124000,2020,6,0,305.25,305.25,63.382,-15.0,988.4,9.58,-999.0,yes,yes,no,300234066436240,BD2GI,AOML,LAGARFOSS,North
2020-10-31T07:00:02Z,1604127603,2020,7,0,305.2917,305.2917,63.389,-15.003,988.6,9.57,-999.0,yes,yes,no,300234066436240,BD2GI,AOML,LAGARFOSS,North
2020-10-31T07:59:57Z,1604131197,2020,8,0,305.3333,305.3333,63.398,-14.996,988.7,9.57,-999.0,yes,yes,no,300234066436240,BD2GI,AOML,LAGARFOSS,North
2020-10-31T09:00:00Z,1604134800,2020,9,0,305.375,305.375,63.405,-14.982,989.0,9.57,-999.0,yes,yes,no,300234066436240,BD2GI,AOML,LAGARFOSS,North
2020-10-31T10:00:02Z,1604138403,2020,10,0,305.4167,305.4167,63.41,-14.961,988.9,9.57,-999.0,yes,yes,no,300234066436240,BD2GI,AOML,LAGARFOSS,North
2020-10-31T10:59:57Z,1604141997,2020,11,0,305.4583,305.4583,63.413,-14.942,988.5,9.57,-999.0,yes,yes,no,300234066436240,BD2GI,AOML,LAGARFOSS,North
2020-10-31T12:00:00Z,1604145600,2020,12,0,305.5,305.5,63.411,-14.93,987.8,9.55,-999.0,yes,yes,no,300234066436240,BD2GI,AOML,LAGARFOSS,North
2020-10-31T13:00:02Z,1604149203,2020,13,0,305.5417,305.5417,63.409,-14.929,986.9,9.56,-999.0,yes,yes,no,300234066436240,BD2GI,AOML,LAGARFOSS,North
2020-10-31T13:59:57Z,1604152797,2020,14,0,305.5833,305.5833,63.405,-14.939,985.8,9.55,-999.0,yes,yes,no,300234066436240,BD2GI,AOML,LAGARFOSS,North
2020-10-31T15:00:00Z,1604156400,2020,15,0,305.625,305.625,63.402,-14.958,984.4,9.53,-999.0,yes,yes,no,300234066436240,BD2GI,AOML,LAGARFOSS,North
2020-10-31T16:00:02Z,1604160003,2020,16,0,305.6667,305.6667,63.399,-14.981,983.2,9.51,-999.0,yes,yes,no,300234066436240,BD2GI,AOML,LAGARFOSS,North
2020-10-31T16:59:57Z,1604163597,2020,17,0,305.7083,305.7083,63.399,-14.998,981.9,9.51,-999.0,yes,yes,no,300234066436240,BD2GI,AOML,LAGARFOSS,North
2020-10-31T18:00:00Z,1604167200,2020,18,0,305.75,305.75,63.4,-15.015,980.8,9.54,-999.0,yes,yes,no,300234066436240,BD2GI,AOML,LAGARFOSS,North
2020-10-31T19:00:02Z,1604170803,2020,19,0,305.7917,305.7917,63.403,-15.022,979.5,9.55,-999.0,yes,yes,no,300234066436240,BD2GI,AOML,LAGARFOSS,North
2020-10-31T19:59:57Z,1604174397,2020,20,0,305.8333,305.8333,63.406,-15.021,978.0,9.53,-999.0,yes,yes,no,300234066436240,BD2GI,AOML,LAGARFOSS,North
2020-10-31T21:00:00Z,1604178000,2020,21,0,305.875,305.875,63.41,-15.018,976.9,9.53,-999.0,yes,yes,no,300234066436240,BD2GI,AOML,LAGARFOSS,North
2020-10-31T22:00:02Z,1604181603,2020,22,0,305.9167,305.9167,63.414,-15.013,975.9,9.53,-999.0,yes,yes,no,300234066436240,BD2GI,AOML,LAGARFOSS,North
2020-10-31T22:59:57Z,1604185197,2020,23,0,305.9583,305.9583,63.416,-15.007,974.7,9.55,-999.0,yes,yes,no,300234066436240,BD2GI,AOML,LAGARFOSS,North
2020-11-01T00:00:00Z,1604188800,2020,0,0,306.0,306.0,63.416,-15.0,973.3,9.54,-999.0,yes,yes,no,300234066436240,BD2GI,AOML,LAGARFOSS,North
2020-11-01T01:00:02Z,1604192403,2020,1,0,306.0417,306.0417,63.416,-14.996,972.0,9.54,-999.0,yes,yes,no,300234066436240,BD2GI,AOML,LAGARFOSS,North
2020-11-01T01:59:57Z,1604195997,2020,2,0,306.0833,306.0833,63.416,-14.998,971.1,9.53,-999.0,yes,yes,no,300234066436240,BD2GI,AOML,LAGARFOSS,North
2020-11-01T03:00:00Z,1604199600,2020,3,0,306.125,306.125,63.415,-14.999,970.3,9.53,-999.0,yes,yes,no,300234066436240,BD2GI,AOML,LAGARFOSS,North
2020-11-01T04:00:02Z,1604203203,2020,4,0,306.1667,306.1667,63.413,-15.004,969.0,9.53,-999.0,yes,yes,no,300234066436240,BD2GI,AOML,LAGARFOSS,North
2020-11-01T04:59:57Z,1604206797,2020,5,0,306.2083,306.2083,63.409,-15.004,968.4,9.53,-999.0,yes,yes,no,300234066436240,BD2GI,AOML,LAGARFOSS,North
2020-11-01T06:00:00Z,1604210400,2020,6,0,306.25,306.25,63.405,-15.007,968.0,9.53,-999.0,yes,yes,no,300234066436240,BD2GI,AOML,LAGARFOSS,North
2020-11-01T07:00:02Z,1604214003,2020,7,0,306.2917,306.2917,63.403,-15.011,967.7,9.53,-999.0,yes,yes,no,300234066436240,BD2GI,AOML,LAGARFOSS,North
2020-11-01T07:59:57Z,1604217597,2020,8,0,306.3333,306.3333,63.403,-15.011,967.3,9.52,-999.0,yes,yes,no,300234066436240,BD2GI,AOML,LAGARFOSS,North
2020-11-01T09:00:00Z,1604221200,2020,9,0,306.375,306.375,63.404,-15.01,967.2,9.52,-999.0,yes,yes,no,300234066436240,BD2GI,AOML,LAGARFOSS,North
2020-11-01T10:00:02Z,1604224803,2020,10,0,306.4167,306.4167,63.408,-15.008,966.9,9.51,-999.0,yes,yes,no,300234066436240,BD2GI,AOML,LAGARFOSS,North
2020-11-01T10:59:57Z,1604228397,2020,11,0,306.4583,306.4583,63.413,-15.001,966.6,9.53,-999.0,yes,yes,no,300234066436240,BD2GI,AOML,LAGARFOSS,North
2020-11-01T12:00:00Z,1604232000,2020,12,0,306.5,306.5,63.418,-14.995,966.2,9.52,-999.0,yes,yes,no,300234066436240,BD2GI,AOML,LAGARFOSS,North
2020-11-01T13:00:02Z,1604235603,2020,13,0,306.5417,306.5417,63.422,-14.988,966.1,9.52,-999.0,yes,yes,no,300234066436240,BD2GI,AOML,LAGARFOSS,North
2020-11-01T13:59:57Z,1604239197,2020,14,0,306.5833,306.5833,63.428,-14.984,965.7,9.54,-999.0,yes,yes,no,300234066436240,BD2GI,AOML,LAGARFOSS,North
2020-11-01T15:00:00Z,1604242800,2020,15,0,306.625,306.625,63.432,-14.98,965.4,9.55,-999.0,yes,yes,no,300234066436240,BD2GI,AOML,LAGARFOSS,North
2020-11-01T16:00:02Z,1604246403,2020,16,0,306.6667,306.6667,63.435,-14.978,965.3,9.53,-999.0,yes,yes,no,300234066436240,BD2GI,AOML,LAGARFOSS,North
2020-11-01T16:59:57Z,1604249997,2020,17,0,306.7083,306.7083,63.435,-14.97,965.3,9.51,-999.0,yes,yes,no,300234066436240,BD2GI,AOML,LAGARFOSS,North
2020-11-01T18:00:00Z,1604253600,2020,18,0,306.75,306.75,63.433,-14.96,965.6,9.51,-999.0,yes,yes,no,300234066436240,BD2GI,AOML,LAGARFOSS,North
2020-11-01T19:00:02Z,1604257203,2020,19,0,306.7917,306.7917,63.428,-14.95,966.0,9.49,-999.0,yes,yes,no,300234066436240,BD2GI,AOML,LAGARFOSS,North
2020-11-01T19:59:57Z,1604260797,2020,20,0,306.8333,306.8333,63.424,-14.941,966.3,9.49,-999.0,yes,yes,no,300234066436240,BD2GI,AOML,LAGARFOSS,North
2020-11-01T21:00:00Z,1604264400,2020,21,0,306.875,306.875,63.42,-14.93,966.3,9.5,-999.0,yes,yes,no,300234066436240,BD2GI,AOML,LAGARFOSS,North
2020-11-01T22:00:02Z,1604268003,2020,22,0,306.9167,306.9167,63.418,-14.919,966.7,9.5,-999.0,yes,yes,no,300234066436240,BD2GI,AOML,LAGARFOSS,North
2020-11-01T22:59:57Z,1604271597,2020,23,0,306.9583,306.9583,63.418,-14.914,967.5,9.5,-999.0,yes,yes,no,300234066436240,BD2GI,AOML,LAGARFOSS,North
2020-11-02T00:00:00Z,1604275200,2020,0,0,307.0,307.0,63.42,-14.913,968.1,9.5,-999.0,yes,yes,no,300234066436240,BD2GI,AOML,LAGARFOSS,North
2020-11-02T01:00:02Z,1604278803,2020,1,0,307.0417,307.0417,63.424,-14.913,968.7,9.49,-999.0,yes,yes,no,300234066436240,BD2GI,AOML,LAGARFOSS,North
2020-11-02T01:59:57Z,1604282397,2020,2,0,307.0833,307.0833,63.427,-14.905,968.5,9.5,-999.0,yes,yes,no,300234066436240,BD2GI,AOML,LAGARFOSS,North
2020-11-02T03:00:00Z,1604286000,2020,3,0,307.125,307.125,63.428,-14.897,969.3,9.47,-999.0,yes,yes,no,300234066436240,BD2GI,AOML,LAGARFOSS,North
2020-11-02T04:00:02Z,1604289603,2020,4,0,307.1667,307.1667,63.427,-14.89,970.0,9.48,-999.0,yes,yes,no,300234066436240,BD2GI,AOML,LAGARFOSS,North
2020-11-02T04:59:57Z,1604293197,2020,5,0,307.2083,307.2083,63.424,-14.883,971.2,9.48,-999.0,yes,yes,no,300234066436240,BD2GI,AOML,LAGARFOSS,North
2020-11-02T06:00:00Z,1604296800,2020,6,0,307.25,307.25,63.417,-14.872,972.0,9.47,-999.0,yes,yes,no,300234066436240,BD2GI,AOML,LAGARFOSS,North
2020-11-02T07:00:02Z,1604300403,2020,7,0,307.2917,307.2917,63.409,-14.865,973.0,9.46,-999.0,yes,yes,no,300234066436240,BD2GI,AOML,LAGARFOSS,North
2020-11-02T07:59:57Z,1604303997,2020,8,0,307.3333,307.3333,63.402,-14.86,973.7,9.45,-999.0,yes,yes,no,300234066436240,BD2GI,AOML,LAGARFOSS,North
2020-11-02T09:00:00Z,1604307600,2020,9,0,307.375,307.375,63.397,-14.854,974.6,9.46,-999.0,yes,yes,no,300234066436240,BD2GI,AOML,LAGARFOSS,North
2020-11-02T10:00:02Z,1604311203,2020,10,0,307.4167,307.4167,63.393,-14.851,975.5,9.48,-999.0,yes,yes,no,300234066436240,BD2GI,AOML,LAGARFOSS,North
2020-11-02T10:59:57Z,1604314797,2020,11,0,307.4583,307.4583,63.39,-14.851,975.9,9.47,-999.0,yes,yes,no,300234066436240,BD2GI,AOML,LAGARFOSS,North
2020-11-02T12:00:00Z,1604318400,2020,12,0,307.5,307.5,63.391,-14.854,976.5,9.46,-999.0,yes,yes,no,300234066436240,BD2GI,AOML,LAGARFOSS,North
2020-11-02T13:00:02Z,1604322003,2020,13,0,307.5417,307.5417,63.395,-14.861,976.9,9.45,-999.0,yes,yes,no,300234066436240,BD2GI,AOML,LAGARFOSS,North
2020-11-02T13:59:57Z,1604325597,2020,14,0,307.5833,307.5833,63.398,-14.862,977.5,9.43,-999.0,yes,yes,no,300234066436240,BD2GI,AOML,LAGARFOSS,North
2020-11-02T15:00:00Z,1604329200,2020,15,0,307.625,307.625,63.399,-14.858,977.9,9.4,-999.0,yes,yes,no,300234066436240,BD2GI,AOML,LAGARFOSS,North
2020-11-02T16:00:02Z,1604332803,2020,16,0,307.6667,307.6667,63.398,-14.855,978.3,9.4,-999.0,yes,yes,no,300234066436240,BD2GI,AOML,LAGARFOSS,North
2020-11-02T16:59:57Z,1604336397,2020,17,0,307.7083,307.7083,63.395,-14.85,979.0,9.39,-999.0,yes,yes,no,300234066436240,BD2GI,AOML,LAGARFOSS,North
2020-11-02T18:00:00Z,1604340000,2020,18,0,307.75,307.75,63.391,-14.843,979.6,9.39,-999.0,yes,yes,no,300234066436240,BD2GI,AOML,LAGARFOSS,North
2020-11-02T19:00:02Z,1604343603,2020,19,0,307.7917,307.7917,63.385,-14.837,979.9,9.37,-999.0,yes,yes,no,300234066436240,BD2GI,AOML,LAGARFOSS,North
2020-11-02T19:59:57Z,1604347197,2020,20,0,307.8333,307.8333,63.378,-14.823,980.4,9.35,-999.0,yes,yes,no,300234066436240,BD2GI,AOML,LAGARFOSS,North
2020-11-02T21:00:00Z,1604350800,2020,21,0,307.875,307.875,63.371,-14.818,980.8,9.33,-999.0,yes,yes,no,300234066436240,BD2GI,AOML,LAGARFOSS,North
2020-11-02T22:00:02Z,1604354403,2020,22,0,307.9167,307.9167,63.364,-14.813,981.2,9.31,-999.0,yes,yes,no,300234066436240,BD2GI,AOML,LAGARFOSS,North
2020-11-02T22:59:57Z,1604357997,2020,23,0,307.9583,307.9583,63.359,-14.809,981.6,9.29,-999.0,yes,yes,no,300234066436240,BD2GI,AOML,LAGARFOSS,North
2020-11-03T00:00:00Z,1604361600,2020,0,0,308.0,308.0,63.352,-14.809,982.3,9.26,-999.0,yes,yes,no,300234066436240,BD2GI,AOML,LAGARFOSS,North
2020-11-03T01:00:02Z,1604365203,2020,1,0,308.0417,308.0417,63.346,-14.813,983.2,9.23,-999.0,yes,yes,no,300234066436240,BD2GI,AOML,LAGARFOSS,North
2020-11-03T01:59:57Z,1604368797,2020,2,0,308.0833,308.0833,63.342,-14.827,984.4,9.23,-999.0,yes,yes,no,300234066436240,BD2GI,AOML,LAGARFOSS,North
2020-11-03T03:00:00Z,1604372400,2020,3,0,308.125,308.125,63.339,-14.841,985.2,9.25,-999.0,yes,yes,no,300234066436240,BD2GI,AOML,LAGARFOSS,North
2020-11-03T04:00:02Z,1604376003,2020,4,0,308.1667,308.1667,63.336,-14.857,986.5,9.25,-999.0,yes,yes,no,300234066436240,BD2GI,AOML,LAGARFOSS,North
2020-11-03T04:59:57Z,1604379597,2020,5,0,308.2083,308.2083,63.33,-14.871,987.7,9.27,-999.0,yes,yes,no,300234066436240,BD2GI,AOML,LAGARFOSS,North
2020-11-03T06:00:00Z,1604383200,2020,6,0,308.25,308.25,63.327,-14.881,989.2,9.28,-999.0,yes,yes,no,300234066436240,BD2GI,AOML,LAGARFOSS,North
2020-11-03T07:00:02Z,1604386803,2020,7,0,308.2917,308.2917,63.322,-14.892,991.6,9.27,-999.0,yes,yes,no,300234066436240,BD2GI,AOML,LAGARFOSS,North
2020-11-03T07:59:57Z,1604390397,2020,8,0,308.3333,308.3333,63.317,-14.903,994.6,9.29,-999.0,yes,yes,no,300234066436240,BD2GI,AOML,LAGARFOSS,North
2020-11-03T09:00:00Z,1604394000,2020,9,0,308.375,308.375,63.313,-14.918,996.6,9.29,-999.0,yes,yes,no,300234066436240,BD2GI,AOML,LAGARFOSS,North
2020-11-03T10:00:02Z,1604397603,2020,10,0,308.4167,308.4167,63.312,-14.928,999.1,9.28,-999.0,yes,yes,no,300234066436240,BD2GI,AOML,LAGARFOSS,North
2020-11-03T10:59:57Z,1604401197,2020,11,0,308.4583,308.4583,63.312,-14.936,1001.6,9.3,-999.0,yes,yes,no,300234066436240,BD2GI,AOML,LAGARFOSS,North
2020-11-03T12:00:00Z,1604404800,2020,12,0,308.5,308.5,63.312,-14.946,1003.3,9.31,-999.0,yes,yes,no,300234066436240,BD2GI,AOML,LAGARFOSS,North
2020-11-03T13:00:02Z,1604408403,2020,13,0,308.5417,308.5417,63.312,-14.962,1005.4,9.27,-999.0,yes,yes,no,300234066436240,BD2GI,AOML,LAGARFOSS,North
2020-11-03T13:59:57Z,1604411997,2020,14,0,308.5833,308.5833,63.313,-14.978,1007.0,9.3,-999.0,yes,yes,no,300234066436240,BD2GI,AOML,LAGARFOSS,North
2020-11-03T15:00:00Z,1604415600,2020,15,0,308.625,308.625,63.315,-14.986,1009.1,9.3,-999.0,yes,yes,no,300234066436240,BD2GI,AOML,LAGARFOSS,North
2020-11-03T16:00:02Z,1604419203,2020,16,0,308.6667,308.6667,63.314,-14.989,1010.4,9.32,-999.0,yes,yes,no,300234066436240,BD2GI,AOML,LAGARFOSS,North
2020-11-03T16:59:57Z,1604422797,2020,17,0,308.7083,308.7083,63.31,-14.998,1011.7,9.34,-999.0,yes,yes,no,300234066436240,BD2GI,AOML,LAGARFOSS,North
2020-11-03T18:00:00Z,1604426400,2020,18,0,308.75,308.75,63.303,-15.011,1013.1,9.34,-999.0,yes,yes,no,300234066436240,BD2GI,AOML,LAGARFOSS,North
2020-11-03T19:00:02Z,1604430003,2020,19,0,308.7917,308.7917,63.297,-15.026,1014.4,9.34,-999.0,yes,yes,no,300234066436240,BD2GI,AOML,LAGARFOSS,North
2020-11-03T19:59:57Z,1604433597,2020,20,0,308.8333,308.8333,63.292,-15.039,1015.5,9.35,-999.0,yes,yes,no,300234066436240,BD2GI,AOML,LAGARFOSS,North
2020-11-03T21:00:00Z,1604437200,2020,21,0,308.875,308.875,63.29,-15.05,1015.9,9.36,-999.0,yes,yes,no,300234066436240,BD2GI,AOML,LAGARFOSS,North
2020-11-03T22:00:02Z,1604440803,2020,22,0,308.9167,308.9167,63.289,-15.059,1016.5,9.37,-999.0,yes,yes,no,300234066436240,BD2GI,AOML,LAGARFOSS,North
2020-11-03T22:59:57Z,1604444397,2020,23,0,308.9583,308.9583,63.289,-15.07,1016.9,9.36,-999.0,yes,yes,no,300234066436240,BD2GI,AOML,LAGARFOSS,North
2020-11-04T00:00:00Z,1604448000,2020,0,0,309.0,309.0,63.291,-15.077,1017.5,9.38,-999.0,yes,yes,no,300234066436240,BD2GI,AOML,LAGARFOSS,North
2020-11-04T01:00:02Z,1604451603,2020,1,0,309.0417,309.0417,63.292,-15.085,1017.2,9.38,-999.0,yes,yes,no,300234066436240,BD2GI,AOML,LAGARFOSS,North
2020-11-04T01:59:57Z,1604455197,2020,2,0,309.0833,309.0833,63.294,-15.104,1017.1,9.38,-999.0,yes,yes,no,300234066436240,BD2GI,AOML,LAGARFOSS,North
2020-11-04T03:00:00Z,1604458800,2020,3,0,309.125,309.125,63.296,-15.107,1017.4,9.39,-999.0,yes,yes,no,300234066436240,BD2GI,AOML,LAGARFOSS,North
2020-11-04T04:00:02Z,1604462403,2020,4,0,309.1667,309.1667,63.297,-15.111,1016.5,9.41,-999.0,yes,yes,no,300234066436240,BD2GI,AOML,LAGARFOSS,North
2020-11-04T04:59:57Z,1604465997,2020,5,0,309.2083,309.2083,63.294,-15.113,1015.6,9.41,-999.0,yes,yes,no,300234066436240,BD2GI,AOML,LAGARFOSS,North
2020-11-04T06:00:00Z,1604469600,2020,6,0,309.25,309.25,63.289,-15.127,1014.4,9.42,-999.0,yes,yes,no,300234066436240,BD2GI,AOML,LAGARFOSS,North
2020-11-04T07:00:02Z,1604473203,2020,7,0,309.2917,309.2917,63.286,-15.136,1013.7,9.42,-999.0,yes,yes,no,300234066436240,BD2GI,AOML,LAGARFOSS,North
2020-11-04T07:59:57Z,1604476797,2020,8,0,309.3333,309.3333,63.286,-15.141,1011.8,9.39,-999.0,yes,yes,no,300234066436240,BD2GI,AOML,LAGARFOSS,North
2020-11-04T09:00:00Z,1604480400,2020,9,0,309.375,309.375,63.285,-15.137,1010.7,9.38,-999.0,yes,yes,no,300234066436240,BD2GI,AOML,LAGARFOSS,North
2020-11-04T10:00:02Z,1604484003,2020,10,0,309.4167,309.4167,63.285,-15.126,1008.7,9.36,-999.0,yes,yes,no,300234066436240,BD2GI,AOML,LAGARFOSS,North
2020-11-04T10:59:57Z,1604487597,2020,11,0,309.4583,309.4583,63.286,-15.11,1007.9,9.26,-999.0,yes,yes,no,300234066436240,BD2GI,AOML,LAGARFOSS,North
2020-11-04T12:00:00Z,1604491200,2020,12,0,309.5,309.5,63.288,-15.097,1006.9,9.34,-999.0,yes,yes,no,300234066436240,BD2GI,AOML,LAGARFOSS,North
2020-11-04T13:00:02Z,1604494803,2020,13,0,309.5417,309.5417,63.294,-15.087,1006.0,9.34,-999.0,yes,yes,no,300234066436240,BD2GI,AOML,LAGARFOSS,North
2020-11-04T13:59:57Z,1604498397,2020,14,0,309.5833,309.5833,63.298,-15.075,1005.2,9.32,-999.0,yes,yes,no,300234066436240,BD2GI,AOML,LAGARFOSS,North
2020-11-04T15:00:00Z,1604502000,2020,15,0,309.625,309.625,63.301,-15.071,1005.1,9.35,-999.0,yes,yes,no,300234066436240,BD2GI,AOML,LAGARFOSS,North
2020-11-04T16:00:02Z,1604505603,2020,16,0,309.6667,309.6667,63.302,-15.076,1004.0,9.41,-999.0,yes,yes,no,300234066436240,BD2GI,AOML,LAGARFOSS,North
2020-11-04T16:59:57Z,1604509197,2020,17,0,309.7083,309.7083,63.303,-15.074,1005.6,9.42,-999.0,yes,yes,no,300234066436240,BD2GI,AOML,LAGARFOSS,North
2020-11-04T18:00:00Z,1604512800,2020,18,0,309.75,309.75,63.302,-15.077,1006.6,9.43,-999.0,yes,yes,no,300234066436240,BD2GI,AOML,LAGARFOSS,North
2020-11-04T19:00:02Z,1604516403,2020,19,0,309.7917,309.7917,63.299,-15.082,1006.9,9.44,-999.0,yes,yes,no,300234066436240,BD2GI,AOML,LAGARFOSS,North
2020-11-04T19:59:57Z,1604519997,2020,20,0,309.8333,309.8333,63.295,-15.09,1008.5,9.44,-999.0,yes,yes,no,300234066436240,BD2GI,AOML,LAGARFOSS,North
2020-11-04T21:00:00Z,1604523600,2020,21,0,309.875,309.875,63.292,-15.097,1008.3,9.45,-999.0,yes,yes,no,300234066436240,BD2GI,AOML,LAGARFOSS,North
2020-11-04T22:00:02Z,1604527203,2020,22,0,309.9167,309.9167,63.292,-15.098,1008.6,9.45,-999.0,yes,yes,no,300234066436240,BD2GI,AOML,LAGARFOSS,North
2020-11-04T22:59:57Z,1604530797,2020,23,0,309.9583,309.9583,63.295,-15.097,1009.0,9.44,-999.0,yes,yes,no,300234066436240,BD2GI,AOML,LAGARFOSS,North
2020-11-05T00:00:00Z,1604534400,2020,0,0,310.0,310.0,63.297,-15.092,1009.7,9.43,-999.0,yes,yes,no,300234066436240,BD2GI,AOML,LAGARFOSS,North
2020-11-05T01:00:02Z,1604538003,2020,1,0,310.0417,310.0417,63.298,-15.08,1009.2,9.43,-999.0,yes,yes,no,300234066436240,BD2GI,AOML,LAGARFOSS,North
2020-11-05T01:59:57Z,1604541597,2020,2,0,310.0833,310.0833,63.298,-15.073,1008.5,9.42,-999.0,yes,yes,no,300234066436240,BD2GI,AOML,LAGARFOSS,North
2020-11-05T03:00:00Z,1604545200,2020,3,0,310.125,310.125,63.295,-15.065,1008.5,9.42,-999.0,yes,yes,no,300234066436240,BD2GI,AOML,LAGARFOSS,North
2020-11-05T04:00:02Z,1604548803,2020,4,0,310.1667,310.1667,63.291,-15.065,1007.7,9.4,-999.0,yes,yes,no,300234066436240,BD2GI,AOML,LAGARFOSS,North
2020-11-05T04:59:57Z,1604552397,2020,5,0,310.2083,310.2083,63.286,-15.069,1007.9,9.39,-999.0,yes,yes,no,300234066436240,BD2GI,AOML,LAGARFOSS,North
2020-11-05T06:00:00Z,1604556000,2020,6,0,310.25,310.25,63.279,-15.08,1007.3,9.38,-999.0,yes,yes,no,300234066436240,BD2GI,AOML,LAGARFOSS,North
2020-11-05T07:00:02Z,1604559603,2020,7,0,310.2917,310.2917,63.272,-15.093,1006.5,9.38,-999.0,yes,yes,no,300234066436240,BD2GI,AOML,LAGARFOSS,North
2020-11-05T07:59:57Z,1604563197,2020,8,0,310.3333,310.3333,63.266,-15.106,1005.8,9.38,-999.0,yes,yes,no,300234066436240,BD2GI,AOML,LAGARFOSS,North
2020-11-05T09:00:00Z,1604566800,2020,9,0,310.375,310.375,63.261,-15.117,1005.9,9.39,-999.0,yes,yes,no,300234066436240,BD2GI,AOML,LAGARFOSS,North
2020-11-05T10:00:02Z,1604570403,2020,10,0,310.4167,310.4167,63.258,-15.127,1005.7,9.39,-999.0,yes,yes,no,300234066436240,BD2GI,AOML,LAGARFOSS,North
2020-11-05T10:59:57Z,1604573997,2020,11,0,310.4583,310.4583,63.257,-15.14,1005.6,9.38,-999.0,yes,yes,no,300234066436240,BD2GI,AOML,LAGARFOSS,North
2020-11-05T12:00:00Z,1604577600,2020,12,0,310.5,310.5,63.256,-15.151,1005.3,9.38,-999.0,yes,yes,no,300234066436240,BD2GI,AOML,LAGARFOSS,North
2020-11-05T13:00:02Z,1604581203,2020,13,0,310.5417,310.5417,63.258,-15.153,1004.6,9.39,-999.0,yes,yes,no,300234066436240,BD2GI,AOML,LAGARFOSS,North
2020-11-05T13:59:57Z,1604584797,2020,14,0,310.5833,310.5833,63.258,-15.152,1004.2,9.38,-999.0,yes,yes,no,300234066436240,BD2GI,AOML,LAGARFOSS,North
2020-11-05T15:00:00Z,1604588400,2020,15,0,310.625,310.625,63.257,-15.154,1003.5,9.38,-999.0,yes,yes,no,300234066436240,BD2GI,AOML,LAGARFOSS,North
2020-11-05T16:00:02Z,1604592003,2020,16,0,310.6667,310.6667,63.254,-15.162,1003.9,9.38,-999.0,yes,yes,no,300234066436240,BD2GI,AOML,LAGARFOSS,North
2020-11-05T16:59:57Z,1604595597,2020,17,0,310.7083,310.7083,63.251,-15.171,1003.6,9.37,-999.0,yes,yes,no,300234066436240,BD2GI,AOML,LAGARFOSS,North
2020-11-05T18:00:00Z,1604599200,2020,18,0,310.75,310.75,63.244,-15.182,1004.2,9.36,-999.0,yes,yes,no,300234066436240,BD2GI,AOML,LAGARFOSS,North
2020-11-05T19:00:02Z,1604602803,2020,19,0,310.7917,310.7917,63.237,-15.199,1004.9,9.36,-999.0,yes,yes,no,300234066436240,BD2GI,AOML,LAGARFOSS,North
2020-11-05T19:59:57Z,1604606397,2020,20,0,310.8333,310.8333,63.23,-15.211,1005.4,9.37,-999.0,yes,yes,no,300234066436240,BD2GI,AOML,LAGARFOSS,North
2020-11-05T21:00:00Z,1604610000,2020,21,0,310.875,310.875,63.222,-15.226,1005.8,9.36,-999.0,yes,yes,no,300234066436240,BD2GI,AOML,LAGARFOSS,North
2020-11-05T22:00:02Z,1604613603,2020,22,0,310.9167,310.9167,63.218,-15.241,1006.0,9.36,-999.0,yes,yes,no,300234066436240,BD2GI,AOML,LAGARFOSS,North
2020-11-05T22:59:57Z,1604617197,2020,23,0,310.9583,310.9583,63.213,-15.256,1006.6,9.36,-999.0,yes,yes,no,300234066436240,BD2GI,AOML,LAGARFOSS,North
2020-11-06T00:00:00Z,1604620800,2020,0,0,311.0,311.0,63.211,-15.264,1007.1,9.36,-999.0,yes,yes,no,300234066436240,BD2GI,AOML,LAGARFOSS,North
2020-11-06T01:00:02Z,1604624403,2020,1,0,311.0417,311.0417,63.211,-15.272,1007.2,9.35,-999.0,yes,yes,no,300234066436240,BD2GI,AOML,LAGARFOSS,North
2020-11-06T01:59:57Z,1604627997,2020,2,0,311.0833,311.0833,63.211,-15.275,1007.1,9.35,-999.0,yes,yes,no,300234066436240,BD2GI,AOML,LAGARFOSS,North
2020-11-06T03:00:00Z,1604631600,2020,3,0,311.125,311.125,63.211,-15.282,1007.3,9.36,-999.0,yes,yes,no,300234066436240,BD2GI,AOML,LAGARFOSS,North
2020-11-06T04:00:02Z,1604635203,2020,4,0,311.1667,311.1667,63.208,-15.291,1007.4,9.35,-999.0,yes,yes,no,300234066436240,BD2GI,AOML,LAGARFOSS,North
2020-11-06T04:59:57Z,1604638797,2020,5,0,311.2083,311.2083,63.203,-15.302,1007.5,9.36,-999.0,yes,yes,no,300234066436240,BD2GI,AOML,LAGARFOSS,North
2020-11-06T06:00:00Z,1604642400,2020,6,0,311.25,311.25,63.197,-15.32,1007.8,9.37,-999.0,yes,yes,no,300234066436240,BD2GI,AOML,LAGARFOSS,North
2020-11-06T07:00:02Z,1604646003,2020,7,0,311.2917,311.2917,63.192,-15.341,1007.9,9.36,-999.0,yes,yes,no,300234066436240,BD2GI,AOML,LAGARFOSS,North
2020-11-06T07:59:57Z,1604649597,2020,8,0,311.3333,311.3333,63.188,-15.359,1008.2,9.34,-999.0,yes,yes,no,300234066436240,BD2GI,AOML,LAGARFOSS,North
2020-11-06T09:00:00Z,1604653200,2020,9,0,311.375,311.375,63.183,-15.379,1008.6,9.36,-999.0,yes,yes,no,300234066436240,BD2GI,AOML,LAGARFOSS,North
2020-11-06T10:00:02Z,1604656803,2020,10,0,311.4167,311.4167,63.176,-15.394,1008.8,9.34,-999.0,yes,yes,no,300234066436240,BD2GI,AOML,LAGARFOSS,North
2020-11-06T10:59:57Z,1604660397,2020,11,0,311.4583,311.4583,63.18,-15.404,1009.1,9.34,-999.0,yes,yes,no,300234066436240,BD2GI,AOML,LAGARFOSS,North
2020-11-06T12:00:00Z,1604664000,2020,12,0,311.5,311.5,63.178,-15.414,1009.0,9.33,-999.0,yes,yes,no,300234066436240,BD2GI,AOML,LAGARFOSS,North
2020-11-06T13:00:02Z,1604667603,2020,13,0,311.5417,311.5417,63.175,-15.418,1009.2,9.34,-999.0,yes,yes,no,300234066436240,BD2GI,AOML,LAGARFOSS,North